Theta_e
284 284 284 285 286 285 284 283 283 284 285 286 287 287 287 288 288 288 288 288 287 288 289 288 288 289 290 287 288 287 289 285 287 279 281 282 284 285 285 283 283 283 285
284 283 283 284 284 284 283 282 282 282 283 284 285 285 286 287 287 286 287 289 288 288 288 288 288 289 287 288 288 289 288 286 283 278 278 280 281 284 283 282 282 282 281
284 282 282 281 281 282 282 280 280 281 281 282 282 282 283 284 285 285 285 287 287 288 288 287 287 287 287 287 286 287 287 286 285 278 276 278 278 282 280 279 279 279 281
282 281 280 280 281 282 282 280 278 279 280 280 281 281 282 283 284 284 285 285 286 287 287 287 287 287 287 287 286 285 286 285 286 282 276 278 278 281 281 279 278 279 279
281 280 280 281 281 281 280 280 279 278 279 280 280 280 281 281 282 283 284 284 284 285 286 286 287 287 288 288 286 286 285 285 285 284 280 275 277 278 279 279 279 278 280
280 280 281 281 281 280 280 280 279 278 278 279 279 279 278 280 284 286 286 284 285 285 284 285 286 286 286 289 291 291 288 285 284 283 283 280 279 279 280 278 279 277 275
280 281 280 280 280 280 280 279 279 277 277 277 277 278 277 278 283 284 286 283 283 284 284 285 285 285 285 285 288 291 291 291 290 285 284 283 280 279 279 278 279 280 279
278 279 279 279 279 279 279 278 278 278 276 276 276 276 276 277 281 283 283 282 282 283 284 284 284 285 285 284 284 285 286 287 288 287 285 286 284 281 281 281 281 281 278
277 277 277 277 277 277 276 277 277 276 276 275 275 274 274 274 279 280 280 279 280 281 283 284 284 284 287 288 285 283 283 284 288 290 290 290 290 287 284 282 278 277 274
275 275 275 274 273 273 274 274 275 275 274 274 273 273 273 271 276 277 277 276 277 279 281 282 284 284 287 288 285 284 282 282 284 284 285 288 289 286 286 283 280 277 277
272 271 270 270 268 268 268 269 269 269 270 269 269 270 270 270 271 275 277 275 276 277 278 280 282 286 288 289 289 285 283 284 285 283 283 283 283 282 283 283 282 281 279
268 267 265 264 264 264 263 263 264 264 264 265 265 266 268 269 272 274 276 277 279 277 278 280 282 285 286 288 288 288 288 286 283 282 281 281 280 280 281 281 281 281 281
263 261 261 261 261 262 261 261 261 261 261 262 263 263 265 267 268 272 274 275 277 277 280 282 284 284 285 287 288 288 286 284 283 280 279 279 280 281 280 279 279 278 277
260 260 260 260 260 260 261 261 260 260 260 261 261 261 262 264 265 267 268 270 272 274 281 279 280 282 284 285 284 286 285 284 282 280 279 279 280 279 277 278 274 275 273
260 260 259 260 259 260 261 261 261 262 262 261 262 263 262 262 265 269 269 268 270 273 275 276 276 277 278 280 282 282 283 283 281 279 279 278 278 277 276 276 274 273 272
258 258 258 258 259 259 259 259 265 267 268 269 270 269 267 270 271 272 272 273 274 276 273 272 273 277 277 279 279 279 281 281 281 279 278 277 275 274 272 273 273 272 270
258 258 258 258 258 258 258 259 258 262 267 268 269 269 269 270 270 271 271 272 274 274 271 272 274 276 276 278 278 279 278 280 279 278 275 274 273 273 271 271 271 271 270
258 258 258 258 258 258 259 259 260 259 259 260 265 266 268 269 270 270 271 272 268 270 271 272 274 276 276 277 278 278 276 275 275 274 273 273 272 271 271 270 270 269 269
258 258 258 259 259 259 260 260 260 261 261 262 262 264 265 267 269 270 271 268 267 268 270 271 275 276 276 278 278 275 274 274 273 273 272 272 272 271 270 270 270 269 269
258 259 260 259 260 260 261 261 261 262 262 262 261 261 262 262 262 263 265 266 269 271 273 277 275 277 277 275 274 274 273 273 272 272 271 271 271 270 269 269 269 268 268
259 259 259 259 259 260 261 262 263 265 264 263 262 263 269 268 266 266 267 271 272 273 274 277 274 275 275 274 272 272 271 271 270 270 270 269 269 268 269 269 268 267 267
258 258 258 258 259 260 261 262 263 263 263 263 264 264 269 265 264 264 265 266 268 272 274 271 273 274 273 272 271 270 269 269 269 269 268 269 268 268 268 267 267 267 266
258 257 257 258 259 259 260 260 261 262 262 262 262 262 262 262 262 263 264 265 265 266 267 267 268 268 270 270 270 270 268 268 268 268 268 267 267 267 267 266 266 265 265
257 256 257 257 258 258 259 259 260 260 260 260 261 261 261 261 261 261 262 263 264 264 265 266 266 267 267 267 268 268 268 268 268 268 268 267 266 266 266 265 266 265 265
256 256 256 256 256 257 257 258 259 259 260 260 260 260 260 261 261 261 262 262 262 262 262 263 263 264 264 265 265 267 268 267 267 267 267 266 265 265 265 265 264 264 264
255 255 255 256 256 256 257 257 258 259 259 260 260 260 260 260 261 261 261 261 261 261 261 261 262 262 263 263 264 266 267 267 265 266 266 265 264 264 264 263 263 263 263
Wind_Speed
5 5 5 4 4 3 4 6 8 9 10 10 8 9 8 10 8 7 7 8 10 11 11 12 14 11 12 7 8 7 10 5 10 2 3 5 11 12 10 11 11 10 10
3 4 5 5 4 5 4 5 6 6 8 8 8 9 10 9 8 8 10 10 11 13 13 14 16 10 15 13 10 16 12 8 6 6 4 4 7 14 11 11 9 7 7
3 4 4 5 5 5 6 5 6 7 7 7 5 6 8 9 10 9 9 11 12 14 14 14 15 14 15 12 11 14 13 10 7 5 5 3 3 10 7 5 7 5 5
6 6 6 6 7 8 8 6 6 6 7 7 8 7 8 9 9 10 10 11 13 14 14 15 15 15 18 16 15 14 13 12 13 7 4 6 5 8 10 10 8 5 8
6 6 8 8 10 11 10 8 7 7 8 8 9 9 9 9 8 9 9 11 12 14 15 15 16 17 22 21 13 15 13 13 13 14 7 4 8 9 16 10 10 7 6
7 8 8 9 12 12 12 12 9 9 10 10 12 11 11 10 19 23 19 12 13 14 15 15 15 17 19 26 29 28 19 17 17 14 14 14 16 14 13 12 10 7 6
7 10 11 13 14 15 14 13 13 11 10 13 13 12 14 14 24 26 24 14 13 14 16 15 15 13 16 16 24 29 31 31 30 18 18 19 15 17 17 17 15 14 9
9 11 12 14 16 16 16 17 17 14 14 15 15 14 15 16 28 28 27 17 15 17 17 17 17 18 17 16 15 18 21 22 24 20 20 18 15 16 20 21 22 14 5
10 11 12 13 14 16 16 17 17 16 17 17 16 19 18 18 29 31 27 17 18 19 17 16 17 19 23 26 19 19 19 21 22 30 31 24 22 27 21 11 12 13 4
13 13 12 12 14 16 17 19 17 16 18 15 19 19 21 22 32 34 29 15 19 16 17 17 23 22 28 28 19 17 20 21 16 15 18 21 19 21 32 21 17 17 11
12 14 15 15 14 15 17 17 18 19 20 21 22 21 22 22 25 37 35 19 16 16 16 14 13 26 28 30 31 17 19 15 17 14 14 12 11 14 16 15 17 15 14
14 14 15 15 13 14 17 17 18 18 20 21 21 21 17 20 27 29 34 34 31 19 19 15 14 26 29 29 25 27 29 24 10 11 12 13 13 14 12 9 10 7 5
15 15 15 15 14 14 15 16 15 15 15 16 15 16 16 14 15 31 33 35 36 25 17 19 29 31 32 25 30 28 26 13 12 13 14 14 13 10 11 12 9 9 9
16 17 15 15 16 15 12 12 13 13 13 14 14 15 15 15 14 14 14 15 25 22 20 13 16 25 28 21 14 19 14 13 14 12 13 11 10 10 12 12 12 11 10
16 15 16 13 15 15 14 13 13 15 16 15 15 15 16 15 14 25 25 15 14 20 21 13 11 10 11 11 12 12 12 12 12 11 11 11 10 11 10 11 13 13 9
15 14 13 13 13 13 14 14 24 31 34 35 36 30 17 31 38 37 37 36 36 35 19 15 14 10 9 10 10 10 10 12 11 12 11 10 10 10 9 8 9 10 10
15 15 13 15 13 14 14 14 17 17 31 34 35 35 35 35 36 35 35 34 33 30 17 14 15 13 9 9 8 9 10 9 8 10 10 11 11 10 14 10 10 10 9
15 20 13 13 13 13 14 15 14 16 17 16 23 27 30 33 33 32 31 28 15 17 13 13 14 13 8 9 8 7 5 7 9 11 12 13 13 13 12 10 10 11 10
14 12 12 12 13 15 14 14 14 15 15 15 14 19 18 27 29 30 29 13 13 13 12 13 15 9 7 8 6 7 9 10 10 11 10 11 11 11 10 9 9 12 13
13 18 16 12 12 13 12 13 14 14 14 12 11 13 12 13 12 13 11 11 11 12 12 9 5 6 7 8 7 8 8 9 9 8 9 9 10 9 10 11 10 11 9
11 12 16 12 12 12 13 13 14 13 11 11 12 13 26 14 13 12 12 10 9 8 9 6 4 6 7 8 8 8 8 8 8 9 9 10 10 10 10 9 10 9 10
10 10 11 12 12 12 12 12 12 12 12 11 12 11 23 8 8 8 9 10 11 9 6 4 4 4 6 8 9 9 9 9 9 9 10 10 10 10 10 10 10 9 9
9 11 11 11 11 14 12 12 11 11 11 11 11 10 10 9 8 9 9 9 10 10 9 8 7 8 7 7 6 7 9 9 9 10 11 10 10 9 9 10 10 9 8
10 10 11 10 10 11 11 12 11 13 12 11 10 10 10 9 9 10 9 9 9 9 9 8 8 10 9 8 7 7 7 8 8 10 13 12 11 11 10 10 9 9 8
8 9 9 10 10 10 11 11 11 11 11 10 10 10 10 10 10 10 9 9 9 9 11 10 8 11 13 13 11 11 13 14 11 12 9 11 12 12 10 8 8 7 7
8 9 8 8 9 10 10 11 11 11 11 11 11 10 10 10 10 10 10 10 9 10 11 10 12 15 14 12 14 15 16 16 13 15 10 10 9 8 7 8 9 6 6
Wind_Direction
19 348 344 345 353 333 327 327 327 323 322 318 340 338 318 312 299 274 255 249 244 247 238 235 239 235 235 227 222 209 209 165 214 245 169 179 176 180 181 184 187 187 192
352 325 323 325 328 298 283 286 283 277 286 304 331 332 325 316 301 290 276 266 258 253 247 242 242 232 237 229 217 224 220 205 160 160 177 158 187 189 177 186 187 190 189
325 309 306 295 278 280 273 276 278 281 291 313 316 300 302 303 303 288 272 275 267 262 253 246 246 235 236 232 225 226 222 212 202 144 165 176 143 175 158 176 181 187 188
323 319 311 302 303 298 292 275 292 303 306 305 297 289 289 290 286 281 279 274 270 267 261 253 250 242 240 231 230 226 221 214 210 200 176 167 157 172 173 174 192 205 194
296 298 297 301 307 306 305 296 295 292 289 279 279 281 284 285 280 284 276 275 274 273 267 262 256 251 246 236 227 222 222 219 216 217 201 160 175 166 184 180 192 185 194
280 285 286 294 298 297 295 292 277 282 286 286 284 275 284 279 283 291 290 284 277 271 269 265 259 257 253 246 237 231 211 214 220 218 215 212 199 184 179 177 173 173 201
280 288 292 294 294 292 292 289 285 283 284 283 280 278 279 279 283 286 285 281 279 273 269 265 264 255 252 250 245 240 235 222 219 215 222 217 199 188 171 178 187 191 202
280 279 282 284 281 284 289 286 286 287 288 288 286 284 282 279 280 282 283 278 272 268 264 261 261 260 250 248 243 238 235 231 226 222 221 224 220 192 188 183 186 179 75
284 282 282 281 282 285 284 285 284 284 283 283 284 288 285 282 285 287 287 283 272 266 261 256 254 256 251 248 247 241 237 238 232 227 229 222 217 189 186 161 172 162 159
303 305 310 307 300 297 298 297 295 292 286 285 283 281 281 283 285 287 287 278 270 264 264 258 250 249 251 242 239 240 240 236 229 227 225 228 213 194 188 189 174 183 170
318 316 312 311 311 306 302 299 299 296 292 288 285 281 279 276 279 282 281 276 267 268 263 260 254 252 254 247 237 228 233 233 235 224 214 211 197 189 195 194 187 186 180
313 310 307 304 301 298 293 290 286 285 283 282 281 280 276 276 273 279 284 279 272 261 255 256 259 262 262 257 247 230 233 228 216 212 211 206 197 187 187 195 186 189 188
310 304 302 298 294 290 289 288 288 284 281 281 279 281 285 286 283 285 292 289 280 273 261 254 261 267 266 260 252 231 225 218 214 205 204 201 198 193 162 156 149 129 105
305 304 301 297 295 288 282 280 280 280 279 280 281 281 281 282 282 284 286 299 297 300 270 270 267 268 265 255 247 226 217 215 211 208 205 198 188 181 174 164 153 149 132
303 303 303 297 294 293 285 283 278 273 271 271 266 267 272 273 270 274 275 271 274 283 289 287 257 250 257 248 238 218 210 212 206 193 193 187 185 179 178 175 164 157 162
306 303 299 297 294 291 291 288 281 286 288 288 288 287 284 284 290 289 285 281 278 277 271 268 268 250 239 244 228 215 209 208 201 186 184 177 161 164 157 169 164 158 152
298 298 296 294 292 291 290 291 294 288 286 288 290 291 291 291 293 291 287 281 276 268 261 264 264 260 229 228 220 217 211 206 177 177 154 153 154 156 161 170 165 152 151
294 292 292 291 291 290 289 288 288 291 294 290 286 288 290 291 293 292 287 283 272 273 274 246 250 257 213 212 207 209 162 151 152 153 160 157 158 160 168 170 164 158 154
299 297 297 294 292 290 290 287 285 287 288 289 293 293 292 293 296 293 288 277 263 253 254 255 241 210 201 199 189 165 162 164 158 157 161 155 154 158 161 158 152 150 145
304 298 299 298 298 298 296 295 294 290 288 290 292 289 301 294 287 285 271 256 258 239 239 257 190 190 176 156 154 151 152 149 149 146 146 144 142 144 148 149 148 144 142
308 308 311 305 306 306 306 306 306 306 303 297 293 294 303 309 306 299 296 301 279 247 252 208 151 142 146 140 137 142 138 134 138 135 136 136 135 139 140 137 133 133 133
312 307 315 313 312 314 317 314 316 319 328 323 324 318 337 345 333 331 336 340 341 13 39 63 87 100 120 134 134 131 130 129 130 130 130 132 128 132 134 135 133 132 134
318 322 320 320 321 324 325 327 328 331 333 337 339 338 341 340 342 348 349 354 1 16 24 38 55 66 69 79 94 118 129 134 136 133 128 128 125 131 132 130 130 129 132
326 326 326 325 328 331 331 334 334 340 340 343 346 349 350 352 354 357 360 3 14 22 29 39 49 61 68 70 77 85 99 107 118 125 126 125 124 128 124 121 127 131 133
326 333 336 333 334 336 335 340 344 347 350 352 355 358 1 2 5 7 12 15 23 31 35 35 43 53 59 72 80 90 104 105 109 113 112 114 116 118 119 118 123 120 125
328 337 340 339 342 344 345 346 350 353 358 359 1 5 7 11 14 18 21 27 32 39 44 44 48 56 63 67 79 90 93 92 90 92 97 102 106 106 105 114 124 131 139